Погода в Кальмаре

Швеция     56°41′07″N   16°20′28″E
темп.,
°C
ветер,
м/с
пор.,
м/с
влажн.,
%
обл.,
%
осадки,
мм/ч
давл.,
гПа
погр.,
м
15 мая, сб
сб1523:00+9ссз1183100 0.0 100431
02:00+8ссз2294100 0.1 100461
05:00+8ююв1197100 0.5 100425
08:00+9ююв1394100 1.3 1004183
11:00+10ююв498668 0.6 1004490
14:00+14ю566878 0.7 10031030
17:00+12ююз4576100 0.1 1004681
20:00+11зюз26824 0.2 1004531
16 мая, вс
вс1623:00+7ююз229696 0.0 100528
02:00+6ю239597 0.0 100648
05:00+6в119386 0.0 100515
08:00+9юв3688100 0.1 1005365
11:00+12ююв3581100 0.6 1005537
14:00+13ю467277 1.1 1004873
17:00+13ююв5769100 0.1 1004797
20:00+10ююв3784100 0.1 1004334
17 мая, пн
пн1723:00+7ю2297100 0.0 100440
02:00+7вюв1196100 0.0 100410
05:00+7ссв1196100 0.0 100310
08:00+11вюв117869 0.0 1003295
11:00+15ююв44648 0.1 1002993
14:00+15ю576164 0.7 10021113
17:00+16ю565123 0.3 10011570
20:00+13ююз47665 0.3 1002418
18 мая, вт
вт1823:00+7ююз259480 0.0 100385
02:00+6зюз2396100 0.0 100362
05:00+6зюз119697 0.0 100311
08:00+12зюз1268100 0.0 1003333
11:00+17ю224987 0.1 10021574
14:00+15ююз456873 1.1 1003913
17:00+15зюз357561 2.3 1003929
20:00+12зсз36885 3.6 1003244
19 мая, ср
ср1923:00+8з379623 0.1 1004133
02:00+7з38966 0.1 1005173
05:00+6з27975 0.0 1006155
08:00+11з377534 0.0 1007529
11:00+16зюз454344 0.0 10071867
14:00+16зюз4544100 0.0 10072030
17:00+15зюз564570 0.0 10071792
20:00+13юз36596 0.0 1007450